| time (UTC) | temp C | wind direction | speed KPH | gust KPH | rain 1hr cm | rain 24hr cm | rain mn cm | humidity % | barometer mb |
| 20260503231527 | 26 | 139 | 0.0 | 6.4 | 0.00 | 0.00 | 0.00 | 38 | 1008.8 |
| 20260503230008 | 26 | 106 | 0.0 | 3.2 | 0.00 | 0.00 | 0.00 | 40 | 1008.8 |
| 20260503224509 | 26 | 182 | 0.0 | 1.6 | 0.00 | 0.00 | 0.00 | 39 | 1009.0 |
| 20260503223047 | 27 | 170 | 0.0 | 3.2 | 0.00 | 0.00 | 0.00 | 38 | 1009.2 |
| 20260503221546 | 27 | 108 | 0.0 | 4.8 | 0.00 | 0.00 | 0.00 | 37 | 1009.4 |
| 20260503220027 | 27 | 152 | 0.0 | 9.7 | 0.00 | 0.00 | 0.00 | 40 | 1009.6 |
| 20260503214527 | 27 | 82 | 1.6 | 8.0 | 0.00 | 0.00 | 0.00 | 39 | 1009.6 |
| 20260503213006 | 27 | 43 | 0.0 | 3.2 | 0.00 | 0.00 | 0.00 | 38 | 1009.7 |
| 20260503211505 | 26 | 81 | 0.0 | 9.7 | 0.00 | 0.00 | 0.00 | 39 | 1009.8 |
| 20260503210045 | 26 | 134 | 0.0 | 8.0 | 0.00 | 0.00 | 0.00 | 40 | 1009.9 |
| 20260503204544 | 26 | 32 | 0.0 | 3.2 | 0.00 | 0.00 | 0.00 | 38 | 1009.9 |
| 20260503203025 | 27 | 70 | 0.0 | 6.4 | 0.00 | 0.00 | 0.00 | 40 | 1010.0 |
| 20260503201524 | 27 | 62 | 0.0 | 6.4 | 0.00 | 0.00 | 0.00 | 39 | 1010.2 |
| 20260503200006 | 26 | 82 | 0.0 | 4.8 | 0.00 | 0.00 | 0.00 | 40 | 1010.4 |
| 20260503194502 | 26 | 80 | 0.0 | 4.8 | 0.00 | 0.00 | 0.00 | 39 | 1010.7 |
| 20260503193046 | 26 | 82 | 0.0 | 6.4 | 0.00 | 0.00 | 0.00 | 41 | 1011.0 |
| 20260503191542 | 26 | 79 | 0.0 | 4.8 | 0.00 | 0.00 | 0.00 | 40 | 1011.0 |
| 20260503190022 | 25 | 80 | 0.0 | 4.8 | 0.00 | 0.00 | 0.00 | 42 | 1011.0 |
| 20260503184519 | 25 | 76 | 0.0 | 6.4 | 0.00 | 0.00 | 0.00 | 44 | 1011.1 |
| 20260503183059 | 24 | 92 | 0.0 | 8.0 | 0.00 | 0.00 | 0.00 | 43 | 1011.1 |
| 20260503181602 | 23 | 224 | 0.0 | 6.4 | 0.00 | 0.00 | 0.00 | 45 | 1011.2 |
| 20260503180045 | 23 | 84 | 0.0 | 4.8 | 0.00 | 0.00 | 0.00 | 48 | 1011.3 |
| 20260503174534 | 22 | 103 | 0.0 | 11.3 | 0.00 | 0.00 | 0.00 | 50 | 1011.2 |
| 20260503173009 | 21 | 80 | 0.0 | 6.4 | 0.00 | 0.00 | 0.00 | 52 | 1011.3 |
| 20260503171507 | 21 | 105 | 1.6 | 11.3 | 0.00 | 0.00 | 0.00 | 53 | 1011.2 |
| 20260503160117 | 18 | 89 | 0.0 | 11.3 | 0.00 | 0.00 | 0.00 | 63 | 1010.9 |
| 20260503081549 | 14 | 136 | 0.0 | 11.3 | 0.00 | 0.00 | 0.00 | 78 | 1008.1 |
| 20260503071510 | 16 | 132 | 1.6 | 12.9 | 0.00 | 0.00 | 0.00 | 77 | 1007.7 |
| 20260503054505 | 18 | 88 | 0.0 | 8.0 | 0.00 | 0.00 | 0.00 | 70 | 1007.9 |
| 20260503053006 | 18 | 66 | 0.0 | 6.4 | 0.00 | 0.00 | 0.00 | 69 | 1007.7 |
| 20260503051548 | 18 | 86 | 1.6 | 8.0 | 0.00 | 0.00 | 0.00 | 67 | 1007.6 |
| 20260503050048 | 19 | 81 | 0.0 | 8.0 | 0.00 | 0.00 | 0.00 | 66 | 1007.7 |
| 20260503044533 | 20 | 95 | 0.0 | 8.0 | 0.00 | 0.00 | 0.00 | 64 | 1007.6 |
| 20260503043040 | 20 | 95 | 0.0 | 6.4 | 0.00 | 0.00 | 0.00 | 62 | 1007.2 |
| 20260503041512 | 21 | 63 | 0.0 | 6.4 | 0.00 | 0.00 | 0.00 | 60 | 1007.1 |
| 20260503040012 | 21 | 86 | 1.6 | 8.0 | 0.00 | 0.00 | 0.00 | 59 | 1007.0 |
| 20260503034554 | 22 | 97 | 0.0 | 8.0 | 0.00 | 0.00 | 0.00 | 57 | 1006.8 |
| 20260503033054 | 22 | 94 | 0.0 | 9.7 | 0.00 | 0.00 | 0.00 | 55 | 1006.6 |
| 20260503031536 | 23 | 115 | 0.0 | 8.0 | 0.00 | 0.00 | 0.00 | 53 | 1006.4 |
| 20260503030035 | 24 | 110 | 0.0 | 12.9 | 0.00 | 0.00 | 0.00 | 51 | 1006.2 |
| 20260503024524 | 25 | 96 | 0.0 | 11.3 | 0.00 | 0.00 | 0.00 | 49 | 1006.1 |
| 20260503023016 | 26 | 73 | 0.0 | 6.4 | 0.00 | 0.00 | 0.00 | 46 | 1006.1 |
| 20260503021603 | 27 | 86 | 1.6 | 11.3 | 0.00 | 0.00 | 0.00 | 43 | 1005.9 |
| 20260503020101 | 27 | 78 | 0.0 | 6.4 | 0.00 | 0.00 | 0.00 | 41 | 1005.9 |
| 20260503014543 | 29 | 89 | 0.0 | 8.0 | 0.00 | 0.00 | 0.00 | 36 | 1005.9 |
| 20260503013040 | 30 | 62 | 0.0 | 0.0 | 0.00 | 0.00 | 0.00 | 26 | 1005.9 |
| 20260503011523 | 30 | 62 | 0.0 | 1.6 | 0.00 | 0.00 | 0.00 | 26 | 1005.9 |
| 20260503010022 | 30 | 62 | 0.0 | 1.6 | 0.00 | 0.00 | 0.00 | 25 | 1005.9 |
| 20260503004503 | 31 | 61 | 0.0 | 1.6 | 0.00 | 0.00 | 0.00 | 25 | 1005.9 |
| 20260503003009 | 31 | 61 | 0.0 | 3.2 | 0.00 | 0.00 | 0.00 | 23 | 1006.0 |
| 20260503001600 | 31 | 61 | 0.0 | 3.2 | 0.00 | 0.00 | 0.00 | 24 | 1006.2 |
| 20260503000043 | 32 | 61 | 0.0 | 1.6 | 0.00 | 0.00 | 0.00 | 22 | 1006.3 |
| 20260502234523 | 32 | 61 | 0.0 | 3.2 | 0.00 | 0.00 | 0.00 | 23 | 1006.4 |
| 20260502233022 | 32 | 61 | 0.0 | 0.0 | 0.00 | 0.00 | 0.00 | 22 | 1006.5 |